Location: ?????????
(41.2393°N, 22.9479°E)
Time: 20:48:48
(UTC+00:00)

OAO 2 Rocket - Pass Details

Date: 17 November 2025
Orbit: 668 x 734 km, 35.0° (Epoch: 10 December)

Event Time Altitude Azimuth Distance (km) Brightness Sun altitude
Rises 15:54:45 0° 256° (WSW) 3,035 9.0 -9.1°
Reaches altitude 10° 15:57:13 10° 249° (WSW) 2,130 7.5 -9.6°
Maximum altitude 16:01:54 41° 180° (S) 999 4.3 -10.4°
Drops below altitude 10° 16:06:40 10° 110° (ESE) 2,172 5.4 -11.3°
Enters shadow 16:06:50 - 110° (ESE) 2,232 5.4 -11.3°
